contact:dominique.lefevre@mio.osupytheas.fr, maurice.libes@osupytheas.fr, didier.mallarino@osupytheas.fr
Project:EMSO http://www.emso-fr.org/EMSO-France
Depth: 2436.0 m
Title:EMSO Ligure Ouest : Data MII capteur AQUADOPP
Date,Latitude,Longitude,X_East,Y_North,Z_Up,Amplitude_X,Amplitude_Y,Amplitude_Z,Batterie,SoundSpeed,Heading,Pitch,Roll,Pressure,TIS,Speed,Direction
, degrees North, degrees East, m.s-1, m.s-1,m.s-1, 1, 1, 1, Volt, m.s-1, degree, degree, degree, dbar, degree_C, m.s-1, degree
2019-08-03T00:00:41,42.805,6.029,-0.026,-0.022,-0.023,106.0,106.0,101.0,13.4,1505.3,325.3,-0.7,1.8,2470.113,13.33,0.034,229.8
2019-08-03T00:03:42,42.805,6.029,-0.012,-0.032,-0.018,106.0,106.0,101.0,13.4,1505.3,327.0,-0.7,1.8,2470.098,13.33,0.034,200.6
2019-08-03T00:06:43,42.805,6.029,-0.017,-0.035,-0.029,105.0,106.0,101.0,13.4,1505.3,324.9,-0.7,1.8,2470.085,13.33,0.038,205.9
2019-08-03T00:09:44,42.805,6.029,-0.011,-0.006,0.016,106.0,105.0,101.0,13.4,1505.3,328.6,-0.7,1.8,2470.056,13.33,0.012,241.4
2019-08-03T00:12:45,42.805,6.029,-0.028,-0.031,-0.055,104.0,105.0,101.0,13.4,1505.3,323.3,-0.7,1.8,2470.101,13.33,0.041,222.1
2019-08-03T00:15:46,42.805,6.029,-0.009,-0.02,-0.007,105.0,106.0,101.0,13.4,1505.3,326.5,-0.7,1.8,2470.131,13.33,0.021,204.2
2019-08-03T00:18:47,42.805,6.029,0.004,-0.009,-0.026,105.0,106.0,100.0,13.3,1505.3,325.5,-0.7,1.8,2470.099,13.33,0.009,156.0
2019-08-03T00:21:48,42.805,6.029,0.007,-0.026,-0.013,105.0,105.0,101.0,13.3,1505.3,327.0,-0.7,1.8,2470.088,13.33,0.026,164.9
2019-08-03T00:24:49,42.805,6.029,-0.007,-0.029,-0.021,105.0,106.0,101.0,13.3,1505.3,326.9,-0.7,1.9,2470.056,13.33,0.029,193.6
2019-08-03T00:27:50,42.805,6.029,-0.022,-0.044,-0.01,107.0,107.0,101.0,13.4,1505.3,325.5,-0.7,1.8,2470.078,13.33,0.049,206.6
2019-08-03T00:30:51,42.805,6.029,-0.024,-0.025,-0.019,105.0,108.0,103.0,13.4,1505.3,324.7,-0.7,1.8,2470.079,13.33,0.034,223.8
2019-08-03T00:33:52,42.805,6.029,0.0,-0.009,0.015,105.0,108.0,103.0,13.4,1505.3,327.4,-0.7,1.8,2470.064,13.33,0.009,180.0
2019-08-03T00:36:53,42.805,6.029,0.0,-0.008,-0.022,107.0,107.0,102.0,13.4,1505.3,323.8,-0.7,1.8,2470.096,13.33,0.008,180.0
2019-08-03T00:39:54,42.805,6.029,0.0,-0.013,-0.015,106.0,109.0,101.0,13.4,1505.3,326.6,-0.7,1.8,2470.063,13.33,0.013,180.0
2019-08-03T00:42:55,42.805,6.029,-0.002,-0.019,-0.024,104.0,108.0,102.0,13.4,1505.3,325.2,-0.7,1.8,2470.085,13.33,0.019,186.0
2019-08-03T00:45:56,42.805,6.029,-0.008,-0.024,0.018,106.0,107.0,102.0,13.3,1505.3,327.7,-0.7,1.8,2470.046,13.33,0.025,198.4
2019-08-03T00:48:57,42.805,6.029,-0.029,-0.045,-0.025,107.0,109.0,102.0,13.4,1505.3,328.5,-0.7,1.8,2470.036,13.33,0.053,212.8
2019-08-03T00:51:58,42.805,6.029,-0.017,-0.006,-0.015,106.0,105.0,101.0,13.3,1505.3,327.6,-0.7,1.8,2470.04,13.33,0.018,250.6
2019-08-03T00:54:59,42.805,6.029,-0.006,-0.008,-0.016,106.0,108.0,102.0,13.3,1505.3,327.4,-0.7,1.8,2470.073,13.33,0.01,216.9
2019-08-03T00:58:00,42.805,6.029,-0.01,-0.024,-0.002,107.0,108.0,102.0,13.4,1505.3,327.2,-0.7,1.9,2470.043,13.33,0.026,202.6
2019-08-03T01:01:01,42.805,6.029,-0.008,-0.02,-0.036,106.0,107.0,101.0,13.4,1505.3,325.0,-0.7,1.9,2470.019,13.33,0.021,201.8
2019-08-03T01:04:02,42.805,6.029,-0.012,-0.014,-0.012,107.0,108.0,103.0,13.4,1505.3,323.9,-0.7,1.9,2470.062,13.33,0.018,220.6
2019-08-03T01:07:03,42.805,6.029,-0.008,-0.022,0.001,106.0,108.0,101.0,13.4,1505.3,327.3,-0.7,1.9,2470.069,13.33,0.023,200.0
2019-08-03T01:10:04,42.805,6.029,-0.007,-0.002,-0.028,105.0,107.0,101.0,13.4,1505.3,328.7,-0.7,1.8,2470.032,13.33,0.007,254.1
2019-08-03T01:13:05,42.805,6.029,-0.008,-0.021,-0.023,107.0,108.0,101.0,13.4,1505.3,325.6,-0.7,1.9,2470.035,13.33,0.022,200.9
2019-08-03T01:16:06,42.805,6.029,-0.015,-0.005,-0.015,106.0,107.0,103.0,13.4,1505.3,326.5,-0.7,1.8,2470.045,13.33,0.015,251.6
2019-08-03T01:19:07,42.805,6.029,0.005,-0.013,-0.01,105.0,107.0,101.0,13.4,1505.3,323.8,-0.7,1.8,2470.033,13.33,0.013,159.0
2019-08-03T01:22:08,42.805,6.029,0.005,0.004,-0.025,104.0,107.0,101.0,13.3,1505.3,324.6,-0.7,1.8,2469.994,13.33,0.006,51.3
2019-08-03T01:25:09,42.805,6.029,-0.004,-0.007,-0.017,105.0,107.0,101.0,13.3,1505.3,327.0,-0.7,1.8,2470.037,13.33,0.008,209.7
2019-08-03T01:28:10,42.805,6.029,-0.022,-0.018,-0.004,106.0,108.0,101.0,13.4,1505.3,328.0,-0.8,1.8,2470.009,13.33,0.028,230.7
2019-08-03T01:31:11,42.805,6.029,-0.006,-0.019,-0.014,108.0,107.0,102.0,13.4,1505.3,324.6,-0.7,1.8,2470.055,13.33,0.019,197.5
2019-08-03T01:34:12,42.805,6.029,0.011,-0.03,0.005,106.0,108.0,101.0,13.4,1505.3,325.3,-0.7,1.8,2470.021,13.33,0.031,159.9
2019-08-03T01:37:13,42.805,6.029,-0.024,-0.036,0.021,107.0,106.0,103.0,13.3,1505.3,322.7,-0.7,1.8,2470.029,13.33,0.043,213.7
2019-08-03T01:40:14,42.805,6.029,-0.014,-0.032,-0.034,105.0,105.0,102.0,13.4,1505.3,325.9,-0.7,1.8,2470.027,13.32,0.034,203.6
2019-08-03T01:43:15,42.805,6.029,0.001,-0.03,-0.016,106.0,107.0,100.0,13.3,1505.3,327.8,-0.7,1.8,2470.003,13.33,0.03,178.1
2019-08-03T01:46:16,42.805,6.029,-0.002,-0.033,-0.03,105.0,106.0,101.0,13.3,1505.3,326.1,-0.7,1.8,2469.986,13.33,0.033,183.5
2019-08-03T01:49:17,42.805,6.029,-0.007,-0.016,-0.035,105.0,106.0,101.0,13.4,1505.3,324.0,-0.7,1.8,2470.012,13.33,0.017,203.6
2019-08-03T01:52:18,42.805,6.029,0.004,-0.033,0.008,106.0,105.0,102.0,13.3,1505.3,326.4,-0.7,1.8,2470.005,13.33,0.033,173.1
2019-08-03T01:55:19,42.805,6.029,0.002,-0.028,-0.001,107.0,106.0,100.0,13.4,1505.3,326.1,-0.7,1.8,2469.952,13.33,0.028,175.9
2019-08-03T01:58:20,42.805,6.029,-0.01,-0.003,0.024,105.0,105.0,100.0,13.4,1505.3,327.1,-0.7,1.9,2469.977,13.33,0.01,253.3
2019-08-03T02:01:21,42.805,6.029,-0.025,-0.036,-0.005,106.0,106.0,101.0,13.3,1505.3,324.6,-0.7,1.8,2469.964,13.33,0.043,214.8
2019-08-03T02:04:22,42.805,6.029,0.001,-0.021,0.012,105.0,106.0,102.0,13.4,1505.3,326.7,-0.7,1.9,2470.003,13.33,0.021,177.3
2019-08-03T02:07:23,42.805,6.029,-0.026,-0.031,0.034,106.0,107.0,102.0,13.4,1505.3,324.1,-0.7,1.8,2469.988,13.33,0.04,220.0
2019-08-03T02:10:24,42.805,6.029,-0.012,-0.008,-0.027,105.0,106.0,101.0,13.4,1505.3,325.4,-0.7,1.9,2469.978,13.33,0.014,236.3
2019-08-03T02:13:25,42.805,6.029,-0.022,-0.021,0.004,104.0,106.0,100.0,13.3,1505.3,323.0,-0.7,1.8,2469.979,13.33,0.03,226.3
2019-08-03T02:16:26,42.805,6.029,-0.008,-0.016,-0.023,104.0,107.0,101.0,13.3,1505.3,324.1,-0.7,1.8,2469.982,13.33,0.017,206.6
2019-08-03T02:19:27,42.805,6.029,0.012,-0.012,0.019,106.0,106.0,100.0,13.3,1505.3,328.4,-0.7,1.8,2469.964,13.33,0.016,135.0
2019-08-03T02:22:28,42.805,6.029,-0.026,-0.028,-0.018,105.0,107.0,101.0,13.4,1505.3,324.3,-0.7,1.8,2469.988,13.33,0.038,222.9
2019-08-03T02:25:29,42.805,6.029,0.01,-0.013,-0.003,106.0,106.0,100.0,13.4,1505.3,327.1,-0.7,1.9,2469.972,13.33,0.016,142.4
2019-08-03T02:28:30,42.805,6.029,-0.01,-0.006,-0.038,104.0,104.0,102.0,13.4,1505.3,324.9,-0.7,1.9,2469.923,13.33,0.011,239.0
2019-08-03T02:31:31,42.805,6.029,-0.007,0.002,-0.028,105.0,107.0,101.0,13.3,1505.3,328.5,-0.7,1.9,2469.991,13.33,0.007,285.9
2019-08-03T02:34:32,42.805,6.029,-0.001,-0.014,0.003,105.0,106.0,101.0,13.3,1505.3,325.4,-0.7,1.8,2469.945,13.33,0.014,184.1
2019-08-03T02:37:33,42.805,6.029,-0.012,-0.023,0.003,105.0,105.0,101.0,13.3,1505.3,326.8,-0.7,1.8,2469.962,13.33,0.025,207.6
2019-08-03T02:40:34,42.805,6.029,0.017,-0.02,-0.02,106.0,107.0,101.0,13.4,1505.3,325.2,-0.7,1.8,2469.929,13.33,0.026,139.6
2019-08-03T02:43:35,42.805,6.029,0.002,-0.024,-0.005,105.0,105.0,101.0,13.4,1505.3,324.9,-0.7,1.9,2469.985,13.33,0.024,175.2
2019-08-03T02:46:36,42.805,6.029,-0.01,-0.029,-0.017,106.0,106.0,102.0,13.3,1505.3,327.4,-0.7,1.8,2469.994,13.33,0.03,199.0
2019-08-03T02:49:37,42.805,6.029,0.014,-0.007,-0.015,105.0,107.0,102.0,13.3,1505.3,328.1,-0.7,1.8,2469.991,13.33,0.015,116.6
2019-08-03T02:52:38,42.805,6.029,-0.012,-0.015,-0.017,106.0,105.0,101.0,13.4,1505.3,326.4,-0.7,1.9,2469.931,13.33,0.019,218.7
2019-08-03T02:55:39,42.805,6.029,0.014,-0.004,-0.003,106.0,105.0,102.0,13.3,1505.3,323.1,-0.8,1.8,2469.945,13.33,0.014,105.9
2019-08-03T02:58:40,42.805,6.029,-0.013,-0.044,-0.022,107.0,107.0,101.0,13.3,1505.3,323.2,-0.7,1.8,2469.961,13.33,0.045,196.5
2019-08-03T03:01:41,42.805,6.029,-0.015,-0.037,-0.013,106.0,107.0,101.0,13.3,1505.3,326.1,-0.7,1.8,2469.986,13.33,0.039,202.1
2019-08-03T03:04:42,42.805,6.029,-0.023,-0.015,-0.018,107.0,106.0,100.0,13.4,1505.3,327.9,-0.7,1.8,2469.944,13.33,0.027,236.9
2019-08-03T03:07:43,42.805,6.029,0.017,-0.035,-0.018,105.0,107.0,101.0,13.3,1505.3,324.6,-0.7,1.8,2469.934,13.33,0.038,154.1
2019-08-03T03:10:44,42.805,6.029,-0.019,-0.03,-0.004,106.0,106.0,101.0,13.4,1505.3,326.6,-0.7,1.8,2469.958,13.32,0.035,212.3
2019-08-03T03:13:45,42.805,6.029,0.003,-0.026,0.001,105.0,106.0,101.0,13.4,1505.3,323.3,-0.7,1.8,2469.951,13.32,0.026,173.4
2019-08-03T03:16:46,42.805,6.029,-0.008,-0.028,-0.021,106.0,107.0,102.0,13.4,1505.3,326.2,-0.7,1.9,2469.938,13.32,0.029,195.9
2019-08-03T03:19:47,42.805,6.029,-0.033,-0.001,-0.015,106.0,106.0,102.0,13.3,1505.3,324.3,-0.7,1.8,2469.961,13.32,0.033,268.3
2019-08-03T03:22:48,42.805,6.029,-0.018,-0.026,-0.002,106.0,107.0,102.0,13.4,1505.3,326.0,-0.7,1.8,2469.959,13.32,0.031,214.7
2019-08-03T03:25:49,42.805,6.029,-0.015,-0.033,0.001,105.0,106.0,101.0,13.4,1505.3,324.5,-0.7,1.8,2469.952,13.32,0.036,204.4
2019-08-03T03:28:50,42.805,6.029,-0.018,-0.018,-0.024,107.0,106.0,101.0,13.3,1505.3,328.4,-0.7,1.8,2469.989,13.33,0.025,225.0
2019-08-03T03:31:51,42.805,6.029,0.005,-0.016,-0.015,105.0,106.0,102.0,13.4,1505.3,325.8,-0.7,1.8,2469.961,13.33,0.016,162.6
2019-08-03T03:34:52,42.805,6.029,-0.004,-0.018,0.005,107.0,107.0,101.0,13.4,1505.3,325.4,-0.7,1.9,2469.955,13.32,0.018,192.5
2019-08-03T03:37:53,42.805,6.029,-0.015,-0.028,-0.005,105.0,105.0,102.0,13.3,1505.3,326.8,-0.7,1.8,2469.912,13.32,0.031,208.2
2019-08-03T03:40:54,42.805,6.029,0.002,-0.021,-0.029,106.0,107.0,100.0,13.3,1505.3,322.9,-0.7,1.8,2469.963,13.32,0.021,174.6
2019-08-03T03:43:55,42.805,6.029,-0.001,-0.018,0.003,106.0,106.0,101.0,13.3,1505.3,325.9,-0.7,1.8,2469.914,13.32,0.018,183.2
2019-08-03T03:46:56,42.805,6.029,-0.012,-0.019,-0.006,107.0,105.0,102.0,13.4,1505.3,328.4,-0.7,1.8,2469.932,13.32,0.022,212.3
2019-08-03T03:49:57,42.805,6.029,0.003,-0.014,-0.021,106.0,107.0,102.0,13.4,1505.3,326.4,-0.7,1.8,2469.972,13.32,0.014,167.9
2019-08-03T03:52:58,42.805,6.029,-0.008,-0.015,-0.022,106.0,108.0,101.0,13.3,1505.3,326.1,-0.7,1.8,2469.986,13.32,0.017,208.1
2019-08-03T03:55:59,42.805,6.029,-0.02,-0.022,-0.018,105.0,106.0,101.0,13.4,1505.3,326.1,-0.7,1.8,2469.911,13.33,0.029,222.3
2019-08-03T03:59:00,42.805,6.029,0.005,-0.034,0.004,107.0,106.0,101.0,13.4,1505.3,323.0,-0.7,1.8,2469.936,13.32,0.034,171.6
2019-08-03T04:02:01,42.805,6.029,-0.005,-0.044,-0.039,105.0,106.0,101.0,13.3,1505.3,325.8,-0.7,1.8,2469.918,13.32,0.044,186.5
2019-08-03T04:05:02,42.805,6.029,0.006,-0.024,-0.014,105.0,106.0,102.0,13.4,1505.3,327.7,-0.7,1.8,2469.973,13.32,0.024,166.0
2019-08-03T04:08:03,42.805,6.029,-0.004,-0.031,0.002,106.0,105.0,101.0,13.3,1505.3,326.8,-0.7,1.8,2469.938,13.32,0.031,187.3
2019-08-03T04:11:04,42.805,6.029,-0.005,-0.038,-0.024,105.0,106.0,102.0,13.4,1505.3,327.7,-0.7,1.8,2469.962,13.32,0.038,187.5
2019-08-03T04:14:05,42.805,6.029,-0.025,-0.027,0.0,104.0,106.0,103.0,13.4,1505.3,327.6,-0.7,1.8,2469.936,13.32,0.036,222.8
2019-08-03T04:17:06,42.805,6.029,-0.005,-0.006,-0.029,105.0,107.0,101.0,13.3,1505.3,326.7,-0.7,1.8,2469.944,13.32,0.007,219.8
2019-08-03T04:20:07,42.805,6.029,0.004,-0.038,0.001,106.0,106.0,102.0,13.4,1505.3,323.9,-0.7,1.8,2469.893,13.32,0.038,174.0
2019-08-03T04:23:08,42.805,6.029,0.013,-0.031,-0.013,105.0,106.0,102.0,13.4,1505.3,326.4,-0.7,1.8,2469.971,13.32,0.033,157.3
2019-08-03T04:26:09,42.805,6.029,-0.019,-0.017,0.007,105.0,107.0,101.0,13.3,1505.3,327.2,-0.7,1.8,2469.953,13.32,0.025,228.2
2019-08-03T04:29:10,42.805,6.029,-0.001,-0.038,-0.024,106.0,106.0,101.0,13.4,1505.3,327.5,-0.7,1.8,2469.994,13.32,0.038,181.5
2019-08-03T04:32:11,42.805,6.029,-0.019,-0.043,-0.017,105.0,105.0,101.0,13.4,1505.3,326.7,-0.7,1.8,2469.915,13.32,0.047,203.8
2019-08-03T04:35:12,42.805,6.029,-0.011,-0.025,0.02,106.0,105.0,100.0,13.3,1505.3,324.9,-0.7,1.9,2469.974,13.32,0.027,203.7
2019-08-03T04:38:13,42.805,6.029,-0.027,-0.011,-0.016,106.0,105.0,101.0,13.4,1505.3,327.2,-0.7,1.8,2470.001,13.32,0.029,247.8
2019-08-03T04:41:14,42.805,6.029,-0.006,-0.003,0.008,105.0,107.0,101.0,13.4,1505.3,326.9,-0.7,1.8,2469.992,13.32,0.006,243.4
2019-08-03T04:44:15,42.805,6.029,-0.006,-0.007,-0.018,105.0,106.0,103.0,13.4,1505.3,325.5,-0.7,1.8,2469.975,13.32,0.009,220.6
2019-08-03T04:47:16,42.805,6.029,0.002,-0.017,-0.008,106.0,106.0,101.0,13.3,1505.3,325.7,-0.7,1.8,2469.992,13.32,0.017,173.3
2019-08-03T04:50:17,42.805,6.029,-0.003,-0.031,-0.034,107.0,106.0,105.0,13.4,1505.3,327.9,-0.7,1.8,2469.97,13.33,0.031,185.5
2019-08-03T04:53:18,42.805,6.029,-0.013,-0.022,0.025,106.0,107.0,103.0,13.4,1505.3,325.1,-0.7,1.9,2469.987,13.33,0.025,210.6
2019-08-03T04:56:19,42.805,6.029,-0.017,-0.04,-0.007,106.0,107.0,101.0,13.4,1505.3,326.6,-0.7,1.8,2469.996,13.33,0.043,203.0
2019-08-03T04:59:20,42.805,6.029,0.013,-0.008,0.001,105.0,108.0,103.0,13.3,1505.3,325.2,-0.7,1.9,2469.955,13.33,0.015,121.6
2019-08-03T05:02:21,42.805,6.029,-0.015,-0.024,-0.021,106.0,106.0,100.0,13.4,1505.3,325.9,-0.7,1.8,2469.971,13.32,0.028,212.0
2019-08-03T05:05:22,42.805,6.029,0.007,-0.008,0.007,106.0,107.0,101.0,13.3,1505.3,324.5,-0.7,1.9,2469.979,13.32,0.01,138.8
2019-08-03T05:08:23,42.805,6.029,-0.016,-0.018,-0.019,106.0,105.0,101.0,13.3,1505.3,324.4,-0.7,1.8,2469.968,13.33,0.024,221.6
2019-08-03T05:11:24,42.805,6.029,-0.001,-0.026,-0.032,106.0,106.0,102.0,13.3,1505.3,327.4,-0.7,1.8,2469.959,13.32,0.026,182.2
2019-08-03T05:14:25,42.805,6.029,0.007,-0.024,0.011,107.0,105.0,104.0,13.4,1505.3,325.9,-0.7,1.8,2470.02,13.33,0.025,163.7
2019-08-03T05:17:26,42.805,6.029,-0.031,-0.009,0.011,105.0,105.0,101.0,13.3,1505.3,327.4,-0.7,1.9,2470.0,13.33,0.032,253.8
2019-08-03T05:20:27,42.805,6.029,-0.009,-0.016,-0.03,106.0,106.0,101.0,13.4,1505.3,324.1,-0.8,1.8,2470.047,13.33,0.018,209.4
2019-08-03T05:23:28,42.805,6.029,-0.009,-0.028,-0.016,107.0,105.0,101.0,13.4,1505.3,327.3,-0.7,1.9,2470.026,13.32,0.029,197.8
2019-08-03T05:26:29,42.805,6.029,-0.022,-0.043,-0.024,106.0,106.0,101.0,13.3,1505.3,324.8,-0.7,1.8,2469.998,13.32,0.048,207.1
2019-08-03T05:29:30,42.805,6.029,0.013,-0.027,0.0,107.0,106.0,101.0,13.4,1505.3,324.7,-0.7,1.8,2469.967,13.32,0.029,154.3
2019-08-03T05:32:31,42.805,6.029,0.009,-0.008,-0.009,107.0,107.0,100.0,13.4,1505.3,323.1,-0.7,1.8,2469.976,13.32,0.012,131.6
2019-08-03T05:35:32,42.805,6.029,-0.001,-0.027,-0.015,105.0,108.0,101.0,13.3,1505.3,326.1,-0.7,1.8,2470.026,13.32,0.027,182.1
2019-08-03T05:38:33,42.805,6.029,0.006,-0.039,-0.035,107.0,107.0,101.0,13.3,1505.3,327.0,-0.7,1.8,2469.987,13.32,0.039,171.3
2019-08-03T05:41:34,42.805,6.029,0.001,-0.039,-0.011,105.0,105.0,101.0,13.4,1505.3,326.1,-0.7,1.8,2469.989,13.32,0.039,178.5
2019-08-03T05:44:35,42.805,6.029,-0.008,-0.05,-0.016,105.0,106.0,102.0,13.4,1505.3,326.8,-0.7,1.8,2469.978,13.32,0.05,189.1
2019-08-03T05:47:36,42.805,6.029,-0.004,-0.028,-0.026,105.0,108.0,102.0,13.4,1505.3,324.4,-0.7,1.8,2469.986,13.32,0.028,188.1
2019-08-03T05:50:37,42.805,6.029,0.009,-0.017,-0.012,106.0,106.0,102.0,13.4,1505.3,325.8,-0.7,1.8,2470.014,13.32,0.019,152.1
2019-08-03T05:53:38,42.805,6.029,-0.008,-0.03,-0.013,105.0,105.0,102.0,13.3,1505.3,324.7,-0.7,1.8,2470.009,13.32,0.031,194.9
2019-08-03T05:56:39,42.805,6.029,-0.001,-0.027,-0.022,106.0,106.0,101.0,13.4,1505.3,323.1,-0.7,1.8,2470.002,13.32,0.027,182.1
2019-08-03T05:59:40,42.805,6.029,-0.006,-0.042,-0.028,106.0,106.0,102.0,13.4,1505.3,326.5,-0.7,1.8,2470.043,13.32,0.042,188.1
2019-08-03T06:02:41,42.805,6.029,-0.004,-0.021,-0.025,107.0,105.0,102.0,13.4,1505.3,324.2,-0.7,1.8,2470.018,13.32,0.021,190.8
2019-08-03T06:05:42,42.805,6.029,-0.003,-0.026,-0.006,105.0,104.0,102.0,13.4,1505.3,326.4,-0.7,1.8,2469.975,13.32,0.026,186.6
2019-08-03T06:08:43,42.805,6.029,-0.007,-0.018,-0.014,106.0,105.0,108.0,13.4,1505.3,327.1,-0.7,1.9,2470.043,13.32,0.019,201.2
2019-08-03T06:11:44,42.805,6.029,-0.012,-0.028,-0.039,106.0,106.0,101.0,13.3,1505.3,325.3,-0.7,1.8,2470.06,13.32,0.03,203.2
2019-08-03T06:14:45,42.805,6.029,-0.004,-0.029,-0.01,106.0,105.0,101.0,13.4,1505.3,323.6,-0.7,1.9,2470.045,13.32,0.029,187.8
2019-08-03T06:17:46,42.805,6.029,0.001,-0.029,-0.032,106.0,106.0,102.0,13.3,1505.3,324.6,-0.7,1.8,2470.035,13.32,0.029,178.0
2019-08-03T06:20:47,42.805,6.029,-0.022,-0.032,-0.021,106.0,105.0,102.0,13.4,1505.3,323.7,-0.7,1.8,2470.026,13.32,0.038,214.5
2019-08-03T06:23:48,42.805,6.029,-0.014,-0.041,-0.062,106.0,106.0,103.0,13.3,1505.3,327.1,-0.7,1.9,2470.011,13.32,0.043,198.9
2019-08-03T06:26:49,42.805,6.029,0.004,-0.024,0.019,107.0,106.0,101.0,13.4,1505.3,325.5,-0.7,1.8,2470.022,13.32,0.024,170.5
2019-08-03T06:29:50,42.805,6.029,-0.012,-0.019,-0.031,106.0,106.0,102.0,13.3,1505.3,326.0,-0.7,1.8,2470.057,13.32,0.022,212.3
2019-08-03T06:32:51,42.805,6.029,-0.005,-0.025,-0.028,105.0,105.0,102.0,13.4,1505.3,325.7,-0.7,1.8,2470.038,13.32,0.025,191.3
2019-08-03T06:35:52,42.805,6.029,0.01,-0.035,0.027,105.0,106.0,102.0,13.3,1505.3,324.4,-0.7,1.9,2470.035,13.32,0.036,164.1
2019-08-03T06:38:53,42.805,6.029,0.019,-0.018,-0.031,105.0,106.0,101.0,13.4,1505.3,324.3,-0.7,1.8,2470.094,13.32,0.026,133.5
2019-08-03T06:41:54,42.805,6.029,-0.002,-0.027,0.009,106.0,107.0,101.0,13.4,1505.3,328.3,-0.7,1.8,2470.069,13.32,0.027,184.2
2019-08-03T06:44:55,42.805,6.029,-0.024,-0.042,-0.016,106.0,106.0,102.0,13.3,1505.3,324.8,-0.7,1.8,2470.086,13.32,0.048,209.7
2019-08-03T06:47:56,42.805,6.029,-0.004,-0.012,-0.047,106.0,106.0,102.0,13.3,1505.3,326.0,-0.7,1.8,2470.048,13.32,0.012,198.4
2019-08-03T06:50:57,42.805,6.029,-0.005,-0.041,-0.025,107.0,105.0,101.0,13.4,1505.3,324.0,-0.7,1.8,2470.039,13.32,0.041,187.0
2019-08-03T06:53:58,42.805,6.029,0.017,-0.044,0.012,106.0,106.0,102.0,13.4,1505.3,323.8,-0.7,1.8,2470.072,13.32,0.047,158.9
2019-08-03T06:56:59,42.805,6.029,-0.011,-0.004,-0.021,105.0,107.0,101.0,13.3,1505.3,325.7,-0.7,1.8,2470.106,13.32,0.011,250.0
2019-08-03T07:00:00,42.805,6.029,-0.003,-0.022,0.006,106.0,107.0,101.0,13.4,1505.3,325.9,-0.7,1.8,2470.062,13.32,0.022,187.8
2019-08-03T07:03:01,42.805,6.029,-0.009,-0.034,-0.038,106.0,106.0,101.0,13.3,1505.3,326.0,-0.7,1.8,2470.077,13.32,0.035,194.8
2019-08-03T07:06:02,42.805,6.029,-0.007,-0.031,-0.016,105.0,106.0,102.0,13.3,1505.3,326.2,-0.7,1.9,2470.1,13.32,0.031,192.7
2019-08-03T07:09:03,42.805,6.029,-0.001,-0.049,-0.033,106.0,106.0,100.0,13.3,1505.3,327.6,-0.7,1.9,2470.122,13.32,0.049,181.2
2019-08-03T07:12:04,42.805,6.029,-0.019,-0.033,-0.036,105.0,106.0,101.0,13.4,1505.3,326.1,-0.7,1.9,2470.111,13.32,0.038,209.9
2019-08-03T07:15:05,42.805,6.029,-0.015,-0.047,-0.017,105.0,106.0,102.0,13.4,1505.3,324.2,-0.7,1.8,2470.085,13.32,0.049,197.7
2019-08-03T07:18:06,42.805,6.029,-0.012,-0.021,0.007,105.0,106.0,100.0,13.4,1505.3,327.7,-0.7,1.8,2470.086,13.32,0.024,209.7
2019-08-03T07:21:07,42.805,6.029,-0.035,-0.03,-0.042,106.0,106.0,102.0,13.4,1505.3,327.5,-0.7,1.8,2470.128,13.32,0.046,229.4
2019-08-03T07:24:08,42.805,6.029,-0.003,0.0,0.011,105.0,106.0,100.0,13.4,1505.3,326.2,-0.7,1.8,2470.105,13.32,0.003,270.0
2019-08-03T07:27:09,42.805,6.029,-0.036,-0.025,-0.03,105.0,106.0,102.0,13.4,1505.3,326.6,-0.7,1.8,2470.089,13.32,0.043,235.2
2019-08-03T07:30:10,42.805,6.029,-0.007,-0.018,-0.013,105.0,106.0,100.0,13.3,1505.3,325.9,-0.7,1.8,2470.103,13.32,0.019,201.2
2019-08-03T07:33:11,42.805,6.029,-0.039,-0.014,-0.036,104.0,107.0,101.0,13.4,1505.3,324.2,-0.7,1.8,2470.094,13.32,0.041,250.3
2019-08-03T07:36:12,42.805,6.029,-0.001,-0.02,0.005,105.0,108.0,101.0,13.4,1505.3,324.1,-0.8,1.9,2470.12,13.32,0.02,182.9
2019-08-03T07:39:13,42.805,6.029,-0.02,-0.035,-0.018,108.0,108.0,102.0,13.4,1505.3,326.3,-0.7,1.8,2470.092,13.32,0.04,209.7
2019-08-03T07:42:14,42.805,6.029,-0.025,-0.028,-0.012,107.0,106.0,101.0,13.4,1505.3,324.5,-0.7,1.8,2470.113,13.33,0.037,221.8
2019-08-03T07:45:15,42.805,6.029,0.009,-0.018,0.0,108.0,107.0,100.0,13.4,1505.3,323.8,-0.7,1.8,2470.093,13.33,0.02,153.4
2019-08-03T07:48:16,42.805,6.029,-0.01,-0.029,-0.027,106.0,107.0,103.0,13.4,1505.3,324.6,-0.7,1.9,2470.09,13.33,0.03,199.0
2019-08-03T07:51:17,42.805,6.029,0.005,-0.019,-0.006,104.0,107.0,102.0,13.4,1505.3,325.7,-0.7,1.9,2470.098,13.33,0.019,165.3
2019-08-03T07:54:18,42.805,6.029,-0.022,-0.034,-0.036,105.0,107.0,101.0,13.3,1505.3,325.6,-0.7,1.8,2470.096,13.33,0.04,212.9
2019-08-03T07:57:19,42.805,6.029,0.003,-0.039,-0.027,105.0,107.0,101.0,13.3,1505.3,324.4,-0.7,1.8,2470.084,13.33,0.039,175.6
2019-08-03T08:00:20,42.805,6.029,-0.023,-0.008,0.006,104.0,106.0,102.0,13.4,1505.3,323.2,-0.7,1.8,2470.06,13.33,0.024,250.8
2019-08-03T08:03:21,42.805,6.029,-0.017,-0.01,-0.018,106.0,107.0,101.0,13.4,1505.3,324.0,-0.7,1.8,2470.073,13.33,0.019,239.5
2019-08-03T08:06:22,42.805,6.029,-0.014,-0.022,-0.032,106.0,106.0,104.0,13.4,1505.3,322.9,-0.7,1.8,2470.11,13.33,0.026,212.5
2019-08-03T08:09:23,42.805,6.029,-0.028,-0.017,-0.036,104.0,106.0,101.0,13.4,1505.3,325.8,-0.7,1.8,2470.1,13.33,0.032,238.7
2019-08-03T08:12:24,42.805,6.029,-0.008,-0.034,-0.018,107.0,107.0,100.0,13.4,1505.3,325.1,-0.7,1.9,2470.123,13.33,0.034,193.2
2019-08-03T08:15:25,42.805,6.029,-0.014,-0.008,-0.017,105.0,104.0,101.0,13.4,1505.3,323.4,-0.7,1.8,2470.061,13.33,0.016,240.3
2019-08-03T08:18:26,42.805,6.029,0.01,-0.031,0.014,107.0,106.0,102.0,13.3,1505.3,324.6,-0.7,1.8,2470.15,13.33,0.032,162.1
2019-08-03T08:21:27,42.805,6.029,-0.02,-0.009,-0.015,105.0,107.0,103.0,13.4,1505.3,328.4,-0.7,1.8,2470.072,13.33,0.021,245.8
2019-08-03T08:24:28,42.805,6.029,-0.012,-0.018,0.0,105.0,106.0,102.0,13.4,1505.3,325.3,-0.8,1.8,2470.074,13.33,0.021,213.7
2019-08-03T08:27:29,42.805,6.029,-0.03,-0.035,-0.012,107.0,107.0,102.0,13.4,1505.3,326.1,-0.7,1.8,2470.087,13.33,0.046,220.6
2019-08-03T08:30:30,42.805,6.029,-0.013,-0.014,0.0,107.0,105.0,101.0,13.4,1505.3,323.7,-0.7,1.8,2470.094,13.33,0.019,222.9
2019-08-03T08:33:31,42.805,6.029,-0.024,-0.031,-0.021,105.0,104.0,102.0,13.3,1505.3,325.9,-0.7,1.8,2470.116,13.33,0.039,217.7
2019-08-03T08:36:32,42.805,6.029,0.005,-0.011,-0.021,106.0,106.0,101.0,13.4,1505.3,326.5,-0.7,1.9,2470.105,13.33,0.012,155.6
2019-08-03T08:39:33,42.805,6.029,-0.011,-0.027,-0.013,105.0,106.0,100.0,13.4,1505.3,324.0,-0.7,1.9,2470.084,13.33,0.029,202.2
2019-08-03T08:42:34,42.805,6.029,-0.023,-0.025,-0.013,106.0,106.0,102.0,13.4,1505.3,326.4,-0.7,1.8,2470.111,13.33,0.033,222.6
2019-08-03T08:45:35,42.805,6.029,-0.006,-0.022,-0.007,105.0,105.0,102.0,13.4,1505.3,327.8,-0.7,1.8,2470.122,13.33,0.022,195.3
2019-08-03T08:48:36,42.805,6.029,-0.036,-0.009,0.009,107.0,106.0,102.0,13.4,1505.3,323.9,-0.7,1.8,2470.119,13.33,0.037,256.0
2019-08-03T08:51:37,42.805,6.029,-0.016,-0.021,-0.01,105.0,106.0,102.0,13.3,1505.3,326.2,-0.7,1.8,2470.091,13.33,0.026,217.3
2019-08-03T08:54:38,42.805,6.029,-0.021,-0.028,-0.026,104.0,108.0,101.0,13.4,1505.3,325.1,-0.8,1.8,2470.095,13.33,0.035,216.9
2019-08-03T08:57:39,42.805,6.029,-0.001,-0.025,-0.026,105.0,107.0,101.0,13.4,1505.3,323.0,-0.7,1.9,2470.072,13.33,0.025,182.3
2019-08-03T09:00:40,42.805,6.029,-0.011,-0.029,-0.005,105.0,106.0,101.0,13.4,1505.3,327.2,-0.7,1.8,2470.094,13.33,0.031,200.8
2019-08-03T09:03:41,42.805,6.029,0.008,-0.01,-0.009,106.0,106.0,101.0,13.4,1505.3,324.9,-0.7,1.9,2470.133,13.33,0.012,141.3
2019-08-03T09:06:42,42.805,6.029,-0.017,-0.023,-0.036,106.0,107.0,102.0,13.4,1505.3,323.5,-0.7,1.8,2470.077,13.33,0.028,216.5
2019-08-03T09:09:43,42.805,6.029,-0.003,-0.02,-0.045,104.0,107.0,100.0,13.4,1505.3,325.0,-0.7,1.8,2470.072,13.33,0.02,188.5
2019-08-03T09:12:44,42.805,6.029,0.006,-0.011,0.032,105.0,106.0,101.0,13.3,1505.3,327.5,-0.7,1.8,2470.101,13.33,0.012,151.4
2019-08-03T09:15:45,42.805,6.029,0.016,-0.023,-0.023,105.0,107.0,100.0,13.4,1505.3,322.8,-0.7,1.8,2470.108,13.33,0.028,145.2
2019-08-03T09:18:46,42.805,6.029,-0.008,-0.019,-0.004,106.0,106.0,101.0,13.4,1505.3,325.5,-0.7,1.8,2470.106,13.33,0.02,202.8
2019-08-03T09:21:47,42.805,6.029,-0.017,-0.03,-0.012,106.0,106.0,102.0,13.4,1505.3,327.8,-0.7,1.8,2470.112,13.33,0.034,209.5
2019-08-03T09:24:48,42.805,6.029,0.006,-0.026,-0.002,105.0,105.0,101.0,13.3,1505.3,327.5,-0.7,1.8,2470.118,13.33,0.026,167.0